Location: Recife
(8.0585°S, 34.8848°W)
Time: 06:48:44
(UTC-03:00)

Vanguard 1 Rocket - Pass Details

Date: 15 April 2026
Orbit: 655 x 4212 km, 34.3° (Epoch: 13 May)

Event Time Altitude Azimuth Distance (km) Brightness Sun altitude
Rises 16:26:57 0° 231° (SW) 5,098 11.8 11.4°
Reaches altitude 10° 16:29:39 10° 228° (SW) 4,446 11.5 10.7°
Maximum altitude 16:43:18 76° 142° (SE) 3,146 10.2 7.4°
Drops below altitude 10° 17:07:53 10° 58° (ENE) 7,357 11.6 1.4°
Sets 17:13:57 0° 57° (ENE) 8,447 11.9 0.0°
